TimePDT,TemperatureF,Dew PointF,Humidity,Sea Level PressureIn,VisibilityMPH,Wind Direction,Wind SpeedMPH,Gust SpeedMPH,PrecipitationIn,Events,Conditions,WindDirDegrees,DateUTC
12:15 AM,53.6,50.0,88,29.94,10.0,East,3.5,-,N/A,,Overcast,90,2013-09-22 07:15:00
12:35 AM,53.6,50.0,88,29.94,10.0,Calm,Calm,-,N/A,,Mostly Cloudy,0,2013-09-22 07:35:00
12:55 AM,53.6,50.0,88,29.94,10.0,Calm,Calm,-,N/A,,Mostly Cloudy,0,2013-09-22 07:55:00
1:15 AM,53.6,50.0,88,29.94,10.0,Calm,Calm,-,N/A,,Mostly Cloudy,0,2013-09-22 08:15:00
1:35 AM,53.6,50.0,88,29.94,10.0,Calm,Calm,-,N/A,,Mostly Cloudy,0,2013-09-22 08:35:00
1:55 AM,51.8,50.0,94,29.95,10.0,Calm,Calm,-,N/A,,Overcast,0,2013-09-22 08:55:00
2:10 AM,51.8,50.0,94,29.95,10.0,Calm,Calm,-,N/A,,Mostly Cloudy,0,2013-09-22 09:10:00
2:35 AM,51.8,50.0,94,29.95,10.0,Calm,Calm,-,N/A,,Overcast,0,2013-09-22 09:35:00
2:55 AM,51.8,50.0,94,29.95,10.0,Calm,Calm,-,N/A,,Overcast,0,2013-09-22 09:55:00
3:15 AM,51.8,50.0,94,29.95,10.0,Calm,Calm,-,N/A,,Overcast,0,2013-09-22 10:15:00
3:35 AM,51.8,50.0,94,29.95,10.0,Calm,Calm,-,N/A,,Overcast,0,2013-09-22 10:35:00
3:55 AM,53.6,50.0,88,29.95,10.0,Calm,Calm,-,N/A,,Overcast,0,2013-09-22 10:55:00
4:15 AM,53.6,50.0,88,29.95,10.0,Calm,Calm,-,N/A,,Overcast,0,2013-09-22 11:15:00
4:35 AM,53.6,50.0,88,29.95,10.0,Calm,Calm,-,N/A,,Overcast,0,2013-09-22 11:35:00
4:50 AM,53.6,50.0,88,29.95,10.0,Calm,Calm,-,N/A,,Overcast,0,2013-09-22 11:50:00
5:15 AM,51.8,50.0,94,29.95,10.0,Calm,Calm,-,N/A,,Overcast,0,2013-09-22 12:15:00
5:30 AM,51.8,50.0,94,29.95,10.0,SE,3.5,-,N/A,,Mostly Cloudy,140,2013-09-22 12:30:00
5:55 AM,53.6,50.0,88,29.96,9.0,Calm,Calm,-,N/A,,Overcast,0,2013-09-22 12:55:00
6:15 AM,51.8,51.8,100,29.96,2.5,SE,4.6,-,N/A,,Overcast,140,2013-09-22 13:15:00
6:35 AM,53.6,51.8,94,29.96,0.8,Calm,Calm,-,N/A,,Overcast,0,2013-09-22 13:35:00
6:55 AM,51.8,51.8,100,29.97,0.2,Calm,Calm,-,N/A,Fog,Fog,0,2013-09-22 13:55:00
7:15 AM,51.8,51.8,100,29.98,0.2,Calm,Calm,-,N/A,Fog,Fog,0,2013-09-22 14:15:00
7:35 AM,53.6,53.6,100,29.98,0.2,Calm,Calm,-,N/A,Fog,Fog,0,2013-09-22 14:35:00
7:55 AM,53.6,53.6,100,29.98,0.5,Calm,Calm,-,N/A,Fog,Fog,0,2013-09-22 14:55:00
8:15 AM,53.6,53.6,100,29.99,0.2,Calm,Calm,-,N/A,Fog,Fog,0,2013-09-22 15:15:00
8:35 AM,53.6,53.6,100,29.99,0.2,Calm,Calm,-,N/A,Fog,Fog,0,2013-09-22 15:35:00
8:55 AM,53.6,53.6,100,29.99,2.5,Calm,Calm,-,N/A,,Overcast,0,2013-09-22 15:55:00
9:15 AM,53.6,53.6,100,30.00,5.0,Calm,Calm,-,N/A,,Overcast,0,2013-09-22 16:15:00
9:35 AM,55.4,55.4,100,30.01,9.0,SSE,3.5,-,N/A,,Mostly Cloudy,160,2013-09-22 16:35:00
9:55 AM,59.0,55.4,88,30.01,10.0,Calm,Calm,-,N/A,,Partly Cloudy,0,2013-09-22 16:55:00
10:15 AM,60.8,51.8,72,30.00,10.0,North,6.9,-,N/A,,Scattered Clouds,350,2013-09-22 17:15:00
10:35 AM,64.4,51.8,64,30.00,10.0,North,10.4,-,N/A,,Partly Cloudy,360,2013-09-22 17:35:00
10:55 AM,64.4,51.8,64,30.01,10.0,NNW,4.6,-,N/A,,Clear,340,2013-09-22 17:55:00
11:15 AM,66.2,50.0,56,30.01,10.0,North,11.5,-,N/A,,Clear,360,2013-09-22 18:15:00
11:35 AM,66.2,50.0,56,30.00,10.0,NNW,11.5,-,N/A,,Clear,340,2013-09-22 18:35:00
11:55 AM,66.2,50.0,56,30.00,10.0,North,10.4,-,N/A,,Clear,360,2013-09-22 18:55:00
12:15 PM,68.0,50.0,52,29.99,10.0,North,8.1,-,N/A,,Clear,350,2013-09-22 19:15:00
12:35 PM,69.8,48.2,46,29.98,10.0,NNW,9.2,18.4,N/A,,Clear,330,2013-09-22 19:35:00
12:55 PM,69.8,48.2,46,29.98,10.0,North,12.7,16.1,N/A,,Clear,350,2013-09-22 19:55:00
1:15 PM,71.6,48.2,43,29.98,10.0,NNW,10.4,18.4,N/A,,Clear,340,2013-09-22 20:15:00
1:35 PM,73.4,46.4,38,29.97,10.0,North,13.8,21.9,N/A,,Clear,350,2013-09-22 20:35:00
1:55 PM,73.4,46.4,38,29.97,10.0,NW,9.2,23.0,N/A,,Clear,310,2013-09-22 20:55:00
2:15 PM,73.4,44.6,36,29.96,10.0,NNW,12.7,20.7,N/A,,Clear,340,2013-09-22 21:15:00
2:35 PM,73.4,44.6,36,29.96,10.0,NNW,17.3,21.9,N/A,,Clear,340,2013-09-22 21:35:00
2:55 PM,73.4,42.8,33,29.95,10.0,NNW,17.3,24.2,N/A,,Clear,340,2013-09-22 21:55:00
3:15 PM,73.4,42.8,33,29.95,10.0,NW,16.1,23.0,N/A,,Clear,320,2013-09-22 22:15:00
3:35 PM,73.4,41.0,31,29.95,10.0,NW,15.0,19.6,N/A,,Clear,320,2013-09-22 22:35:00
3:55 PM,73.4,41.0,31,29.95,10.0,NNW,17.3,21.9,N/A,,Clear,330,2013-09-22 22:55:00
4:15 PM,73.4,41.0,31,29.95,10.0,NW,13.8,24.2,N/A,,Clear,310,2013-09-22 23:15:00
4:35 PM,73.4,44.6,36,29.95,10.0,WNW,13.8,20.7,N/A,,Clear,300,2013-09-22 23:35:00
4:55 PM,71.6,44.6,38,29.95,10.0,NW,16.1,26.5,N/A,,Clear,310,2013-09-22 23:55:00
5:15 PM,71.6,46.4,41,29.95,10.0,NNW,16.1,24.2,N/A,,Clear,330,2013-09-23 00:15:00
5:35 PM,71.6,46.4,41,29.95,10.0,NW,13.8,25.3,N/A,,Clear,320,2013-09-23 00:35:00
5:55 PM,71.6,46.4,41,29.96,10.0,NNW,15.0,24.2,N/A,,Clear,330,2013-09-23 00:55:00
6:15 PM,68.0,46.4,46,29.96,10.0,NNW,20.7,25.3,N/A,,Clear,330,2013-09-23 01:15:00
6:35 PM,68.0,46.4,46,29.97,10.0,NNW,17.3,-,N/A,,Clear,330,2013-09-23 01:35:00
6:55 PM,66.2,46.4,49,29.97,10.0,NNW,17.3,23.0,N/A,,Clear,330,2013-09-23 01:55:00
7:15 PM,66.2,48.2,52,29.98,10.0,NNW,13.8,23.0,N/A,,Clear,330,2013-09-23 02:15:00
7:35 PM,64.4,48.2,56,29.99,10.0,NNW,19.6,26.5,N/A,,Clear,340,2013-09-23 02:35:00
7:55 PM,64.4,50.0,59,29.99,10.0,NNW,15.0,23.0,N/A,,Clear,330,2013-09-23 02:55:00
8:15 PM,64.4,50.0,59,30.00,10.0,NNW,13.8,20.7,N/A,,Clear,330,2013-09-23 03:15:00
8:35 PM,62.6,53.6,72,30.00,10.0,NNW,13.8,21.9,N/A,,Clear,330,2013-09-23 03:35:00
8:55 PM,62.6,53.6,72,30.00,10.0,NNW,12.7,18.4,N/A,,Clear,330,2013-09-23 03:55:00
9:15 PM,62.6,53.6,72,30.01,10.0,NNW,12.7,-,N/A,,Clear,330,2013-09-23 04:15:00
9:35 PM,62.6,53.6,72,30.02,10.0,NW,8.1,-,N/A,,Clear,320,2013-09-23 04:35:00
9:55 PM,62.6,53.6,72,30.02,10.0,NNW,11.5,16.1,N/A,,Clear,330,2013-09-23 04:55:00
10:15 PM,60.8,53.6,77,30.01,10.0,NNW,10.4,-,N/A,,Clear,330,2013-09-23 05:15:00
10:35 PM,60.8,53.6,77,30.02,10.0,NNW,8.1,-,N/A,,Clear,330,2013-09-23 05:35:00
10:55 PM,60.8,53.6,77,30.02,10.0,NNW,9.2,-,N/A,,Clear,330,2013-09-23 05:55:00
11:15 PM,59.0,53.6,82,30.02,10.0,NW,6.9,-,N/A,,Clear,320,2013-09-23 06:15:00
11:35 PM,59.0,53.6,82,30.03,10.0,NNW,6.9,-,N/A,,Clear,340,2013-09-23 06:35:00
11:55 PM,59.0,53.6,82,30.02,10.0,NNW,10.4,-,N/A,,Clear,340,2013-09-23 06:55:00